N2RFA-13 Weather Reports


Display with metric or nautical units.
time (UTC)temp
F
wind
direction
speed
MPH
gust
MPH
rain 1hr
in
rain 24hr
in
rain mn
in
humidity
%
barometer
mb
20260510130043 54 138 0.0 1.0 0.00 0.40 0.00 96 1014.3
20260510124546 53 150 0.0 0.0 0.00 0.40 0.00 96 1013.9
20260510123037 52 150 0.0 0.0 0.00 0.40 0.00 96 1013.8
20260510121533 51 150 0.0 0.0 0.00 0.40 0.00 96 1013.9
20260510120038 50 150 0.0 0.0 0.00 0.40 0.00 96 1013.7
20260510114530 50 150 0.0 0.0 0.00 0.40 0.00 96 1013.4
20260510113029 50 150 0.0 0.0 0.00 0.40 0.00 96 1013.2
20260510111532 50 150 0.0 0.0 0.00 0.40 0.00 96 1013.3
20260510110033 50 150 0.0 0.0 0.00 0.40 0.00 96 1013.2
20260510104527 49 150 0.0 2.0 0.00 0.40 0.00 96 1013.1
20260510103028 49 114 0.0 0.0 0.00 0.40 0.00 96 1012.8
20260510101526 49 114 0.0 0.0 0.00 0.40 0.00 96 1012.8
20260510100026 49 114 0.0 0.0 0.00 0.40 0.00 96 1012.7
20260510094530 49 114 0.0 0.0 0.00 0.40 0.00 96 1012.8
20260510093024 49 114 0.0 0.0 0.00 0.40 0.00 96 1012.7
20260510091527 49 114 0.0 0.0 0.00 0.40 0.00 96 1012.7
20260510090025 49 114 0.0 0.0 0.00 0.40 0.00 95 1012.9
20260510084523 49 114 0.0 0.0 0.00 0.40 0.00 96 1013.1
20260510083022 49 114 0.0 0.0 0.00 0.40 0.00 96 1013.1
20260510081522 49 114 0.0 0.0 0.00 0.40 0.00 95 1013.2
20260510080025 49 114 0.0 1.0 0.00 0.40 0.00 95 1013.2
20260510074519 49 114 0.0 1.0 0.00 0.40 0.00 95 1013.1
20260510073017 50 140 0.0 0.0 0.00 0.40 0.00 95 1012.2
20260510071516 50 140 0.0 0.0 0.00 0.40 0.00 95 1012.3
20260510070014 50 140 0.0 0.0 0.00 0.40 0.00 95 1012.3
20260510064513 50 140 0.0 0.0 0.00 0.40 0.00 95 1012.5
20260510063014 50 140 0.0 0.0 0.00 0.40 0.00 95 1012.6
20260510061524 50 140 0.0 0.0 0.00 0.40 0.00 95 1012.6
20260510060027 50 140 0.0 0.0 0.00 0.40 0.00 95 1012.5
20260510054511 50 140 0.0 0.0 0.00 0.40 0.00 95 1012.4
20260510053009 50 140 0.0 0.0 0.00 0.40 0.00 95 1012.3
20260510051508 50 140 0.0 0.0 0.00 0.40 0.00 95 1012.3
20260510050007 51 140 0.0 0.0 0.00 0.40 0.00 95 1012.4
20260510044505 51 140 0.0 1.0 0.00 0.41 0.00 95 1012.5
20260510043006 51 140 0.0 1.0 0.00 0.41 0.00 95 1012.6
20260510041510 51 140 0.0 0.0 0.00 0.41 0.00 95 1012.4
20260510040100 51 140 0.0 0.0 0.00 0.41 0.00 95 1012.6
20260510034600 50 140 0.0 0.0 0.00 0.41 0.41 95 1012.5
20260510033100 50 140 0.0 0.0 0.00 0.41 0.41 95 1012.3
20260510031628 50 140 0.0 0.0 0.00 0.41 0.41 95 1012.2
20260510030058 50 140 0.0 0.0 0.00 0.41 0.41 95 1012.1
20260510024557 50 140 0.0 0.0 0.00 0.41 0.41 95 1012.2
20260510023101 50 140 0.0 0.0 0.00 0.41 0.41 95 1012.3
20260510021556 50 140 0.0 0.0 0.00 0.41 0.41 94 1012.4
20260510020056 50 140 0.0 0.0 0.00 0.41 0.41 94 1012.3
20260510014555 51 140 0.0 0.0 0.00 0.41 0.41 94 1012.2
20260510013054 51 140 0.0 0.0 0.00 0.41 0.41 93 1012.3
20260510011609 52 140 0.0 1.0 0.00 0.41 0.41 94 1012.2
20260510010105 53 134 0.0 0.0 0.00 0.41 0.41 94 1011.9
20260510004552 53 170 0.0 0.0 0.00 0.41 0.41 94 1011.8
20260510003056 53 169 0.0 0.0 0.00 0.41 0.41 94 1011.6
20260510001552 53 160 0.0 1.0 0.00 0.41 0.41 94 1011.7
20260510000051 53 161 0.0 0.0 0.00 0.41 0.41 93 1011.5
20260509234551 53 160 0.0 0.0 0.00 0.41 0.41 93 1011.5
20260509233050 53 167 0.0 0.0 0.00 0.41 0.41 93 1011.2
20260509231558 53 157 0.0 1.0 0.00 0.41 0.41 93 1011.2
20260509230050 54 178 0.0 1.0 0.00 0.41 0.41 93 1011.2
20260509224547 54 167 0.0 1.0 0.00 0.41 0.41 93 1011.3
20260509223046 54 162 0.0 0.0 0.00 0.41 0.41 93 1011.4
20260509221544 54 163 0.0 0.0 0.00 0.41 0.41 93 1011.6
20260509220046 54 149 0.0 0.0 0.07 0.41 0.41 93 1011.6
20260509214543 54 149 0.0 0.0 0.10 0.41 0.41 93 1011.5
20260509213058 54 149 0.0 0.0 0.11 0.41 0.41 94 1011.5
20260509211608 53 149 0.0 0.0 0.14 0.41 0.41 93 1011.6
20260509210041 53 149 0.0 0.0 0.09 0.34 0.34 93 1011.5
20260509204556 53 149 0.0 0.0 0.09 0.31 0.31 93 1011.7
20260509203044 53 149 0.0 0.0 0.10 0.30 0.30 93 1011.6
20260509201538 53 149 0.0 0.0 0.09 0.27 0.27 92 1011.8
20260509200036 53 145 0.0 2.0 0.12 0.25 0.25 92 1012.0
20260509194538 54 116 0.0 2.0 0.11 0.22 0.22 92 1012.2
20260509193034 54 127 0.0 1.0 0.13 0.20 0.20 92 1012.3
20260509191534 54 134 0.0 1.0 0.14 0.18 0.18 91 1012.3
20260509190043 54 134 0.0 1.0 0.11 0.13 0.13 91 1012.5
20260509184532 55 126 0.0 1.0 0.09 0.10 0.10 90 1012.2
20260509183036 56 126 0.0 1.0 0.06 0.07 0.07 88 1012.5
20260509181530 56 126 0.0 1.0 0.03 0.04 0.04 85 1012.8
20260509180028 58 135 0.0 1.0 0.01 0.02 0.02 85 1013.2
20260509174528 59 114 0.0 3.0 0.00 0.01 0.01 81 1013.0
20260509173027 59 118 0.0 3.0 0.00 0.01 0.01 80 1012.7
20260509171527 59 150 0.0 4.0 0.00 0.01 0.01 78 1012.5
20260509170027 60 134 0.0 1.0 0.00 0.01 0.01 75 1012.3
20260509164524 59 148 0.0 2.0 0.00 0.01 0.01 74 1012.4
20260509163026 59 160 0.0 2.0 0.00 0.01 0.01 74 1012.7
20260509161523 59 162 0.0 2.0 0.00 0.01 0.01 75 1012.6
20260509160019 59 144 0.0 4.0 0.00 0.01 0.01 75 1012.9
20260509154519 59 147 0.0 3.0 0.00 0.01 0.01 76 1013.0
20260509153020 59 136 0.0 3.0 0.00 0.01 0.01 78 1013.1
20260509151514 59 152 1.0 4.0 0.00 0.01 0.01 79 1013.2
20260509150010 58 166 0.0 5.0 0.00 0.01 0.01 82 1013.4
20260509144507 57 140 0.0 1.0 0.00 0.01 0.01 84 1013.3
20260509143004 56 146 0.0 2.0 0.00 0.01 0.01 83 1013.3
20260509141502 55 156 0.0 2.0 0.00 0.01 0.01 84 1013.0
20260509140117 55 150 0.0 1.0 0.00 0.01 0.01 85 1013.1
20260509134559 54 146 0.0 1.0 0.00 0.01 0.01 86 1013.1
20260509133102 53 146 0.0 1.0 0.00 0.01 0.01 86 1013.1
20260509131554 52 146 0.0 1.0 0.00 0.01 0.01 88 1013.3